Weather History for Jaffrey, NH

Change the Weather History Date:

Thursday, October 13, 2011

  Actual Average Record
Temperature  
Mean Temperature 53 °F -  
Max Temperature 57 °F 56 °F 72 °F (2000)
Min Temperature 51 °F 36 °F 30 °F (2006)
Degree Days  
Heating Degree Days 12    
Growing Degree Days 3 (Base 50)    
Moisture  
Dew Point 54 °F    
Average Humidity 99    
Maximum Humidity 100    
Minimum Humidity 94    
Precipitation  
Precipitation 0.17 in - - ()
Sea Level Pressure  
Sea Level Pressure 29.91 in    
Wind  
Wind Speed 2 mph (NNE)    
Max Wind Speed 7 mph    
Max Gust Speed -    
Visibility 3 miles    
Events Rain    
Averages and records for this station are not official NWS values.
T = Trace of Precipitation, MM = Missing Value Source: NWS Daily Summary

Daily Weather History Graph

Daily Weather History Graph

Search for Another Location

Airport:

Trip Planner

Search our weather history database for the weather conditions in past years. The results will help you decide how hot, cold, wet, or windy it might be!

Date:

Astronomy

Oct. 13, 2011 Rise Set
Actual Time 6:58 AM EDT 6:09 PM EDT
Civil Twilight 6:30 AM EDT 6:37 PM EDT
Nautical Twilight 5:57 AM EDT 7:10 PM EDT
Astronomical Twilight 5:24 AM EDT 7:43 PM EDT
Moon 6:39 PM EDT (10/13) 8:31 AM EDT (10/13)
Length of Visible Light 12h 07m
Length of Day
11h 10m
Full, 98% of the Moon is Illuminated
Oct 13
Full
Oct 19
Last Quarter
Oct 26
New
Nov 2
First Quarter
Nov 10
Full

Hourly Weather History & Observations

Time (EDT) Temp. Dew Point Humidity Pressure Visibility Wind Dir Wind Speed Gust Speed Precip Events Conditions
12:52 AM 52.0 °F 51.1 °F 97% 30.08 in 2.5 mi Calm Calm - 0.01 in   Overcast
1:11 AM 51.8 °F 51.8 °F 100% 30.05 in 3.0 mi Calm Calm - N/A   Overcast
1:33 AM 53.6 °F 51.8 °F 94% 30.06 in 6.0 mi Calm Calm - N/A   Overcast
1:52 AM 53.1 °F 52.0 °F 96% 30.08 in 5.0 mi Calm Calm - N/A   Overcast
2:37 AM 53.6 °F 51.8 °F 94% 30.03 in 5.0 mi Calm Calm - 0.01 in   Overcast
2:50 AM 53.6 °F 51.8 °F 94% 30.02 in 5.0 mi Variable 3.5 mph - 0.01 in   Overcast
2:52 AM 53.1 °F 52.0 °F 96% 30.04 in 5.0 mi Variable 3.5 mph - 0.01 in   Overcast
3:52 AM 53.1 °F 52.0 °F 96% 30.02 in 6.0 mi Calm Calm - N/A   Overcast
4:52 AM 53.1 °F 52.0 °F 96% 30.01 in 7.0 mi Calm Calm - 0.01 in   Overcast
5:52 AM 53.1 °F 52.0 °F 96% 29.99 in 3.0 mi Variable 4.6 mph - 0.03 in Rain Light Rain
6:52 AM 53.1 °F 52.0 °F 96% 29.97 in 5.0 mi NE 5.8 mph - 0.06 in Rain Light Rain
7:52 AM 53.1 °F 52.0 °F 96% 29.97 in 10.0 mi Variable 5.8 mph - 0.01 in   Overcast
8:01 AM 53.6 °F 51.8 °F 94% 29.95 in 9.0 mi Calm Calm - N/A   Overcast
8:41 AM 51.8 °F 51.8 °F 100% 29.95 in 1.8 mi NNE 5.8 mph - N/A   Overcast
8:52 AM 53.1 °F 52.0 °F 96% 29.97 in 1.5 mi Variable 3.5 mph - N/A   Overcast
9:52 AM 53.1 °F 52.0 °F 96% 29.95 in 1.5 mi Variable 4.6 mph - N/A   Overcast
10:11 AM 53.6 °F 53.6 °F 100% 29.92 in 1.2 mi Variable 5.8 mph - 0.01 in   Overcast
10:26 AM 53.6 °F 53.6 °F 100% 29.92 in 1.8 mi Variable 3.5 mph - 0.01 in   Overcast
10:34 AM 53.6 °F 53.6 °F 100% 29.92 in 2.5 mi Variable 4.6 mph - 0.01 in Rain Light Rain
10:52 AM 53.1 °F 53.1 °F 100% 29.94 in 1.5 mi Variable 5.8 mph - 0.01 in   Overcast
11:22 AM 53.6 °F 53.6 °F 100% 29.91 in 1.2 mi Variable 4.6 mph - N/A   Overcast
11:37 AM 53.6 °F 53.6 °F 100% 29.91 in 1.8 mi NNE 6.9 mph - 0.01 in   Overcast
11:52 AM 54.0 °F 54.0 °F 100% 29.93 in 1.8 mi Variable 4.6 mph - 0.01 in   Overcast
12:00 PM 53.6 °F 53.6 °F 100% 29.90 in 2.5 mi Variable 4.6 mph - N/A   Overcast
12:11 PM 53.6 °F 53.6 °F 100% 29.89 in 3.0 mi NNE 5.8 mph - N/A   Overcast
12:52 PM 55.0 °F 54.0 °F 96% 29.90 in 2.5 mi Calm Calm - N/A   Overcast
1:27 PM 55.4 °F 55.4 °F 100% 29.87 in 1.8 mi Variable 3.5 mph - N/A   Overcast
1:48 PM 55.4 °F 55.4 °F 100% 29.86 in 2.0 mi Variable 3.5 mph - N/A   Overcast
1:52 PM 55.0 °F 55.0 °F 100% 29.88 in 2.0 mi Variable 5.8 mph - N/A   Overcast
2:13 PM 55.4 °F 55.4 °F 100% 29.85 in 1.8 mi Variable 3.5 mph - N/A   Overcast
2:37 PM 55.4 °F 55.4 °F 100% 29.84 in 2.5 mi Variable 5.8 mph - N/A   Overcast
2:52 PM 55.9 °F 55.0 °F 97% 29.86 in 4.0 mi Variable 4.6 mph - N/A   Overcast
3:29 PM 55.4 °F 55.4 °F 100% 29.83 in 2.0 mi Variable 4.6 mph - N/A   Overcast
4:28 PM 55.4 °F 55.4 °F 100% 29.83 in 1.5 mi Variable 4.6 mph - N/A   Overcast
4:52 PM 55.9 °F 55.9 °F 100% 29.84 in 1.2 mi Calm Calm - N/A   Overcast
5:45 PM 55.4 °F 55.4 °F 100% 29.82 in 1.8 mi Calm Calm - 0.01 in   Overcast
5:52 PM 55.9 °F 55.9 °F 100% 29.84 in 1.5 mi Calm Calm - 0.01 in   Overcast
6:21 PM 55.4 °F 55.4 °F 100% 29.82 in 2.5 mi Calm Calm - N/A   Overcast
6:52 PM 55.9 °F 55.0 °F 97% 29.85 in 2.5 mi Calm Calm - N/A   Overcast
7:28 PM 55.4 °F 55.4 °F 100% 29.83 in 3.0 mi Calm Calm - N/A   Overcast
7:52 PM 55.0 °F 55.0 °F 100% 29.85 in 3.0 mi Calm Calm - N/A   Overcast
8:47 PM 55.4 °F 55.4 °F 100% 29.83 in 2.5 mi Calm Calm - N/A   Overcast
8:52 PM 55.0 °F 55.0 °F 100% 29.86 in 2.5 mi North 3.5 mph - N/A   Overcast
9:52 PM 55.0 °F 55.0 °F 100% 29.86 in 2.0 mi Variable 3.5 mph - 0.01 in   Overcast
10:22 PM 55.4 °F 55.4 °F 100% 29.83 in 3.0 mi Calm Calm - N/A   Overcast
10:33 PM 55.4 °F 55.4 °F 100% 29.83 in 2.5 mi Calm Calm - N/A   Overcast
10:42 PM 55.4 °F 55.4 °F 100% 29.83 in 3.0 mi Calm Calm - N/A   Overcast
10:52 PM 55.0 °F 55.0 °F 100% 29.86 in 2.5 mi Calm Calm - N/A   Overcast
11:32 PM 53.6 °F 53.6 °F 100% 29.81 in 3.0 mi Calm Calm - 0.00 in   Overcast
11:45 PM 53.6 °F 53.6 °F 100% 29.80 in 2.5 mi Variable 4.6 mph - 0.00 in   Overcast
11:52 PM 54.0 °F 54.0 °F 100% 29.82 in 3.0 mi NE 4.6 mph - 0.00 in   Overcast